Preview of NWS' New Version of Forecast
This preview is not operational and should not be used for support decisions.

Regional Weather Roundup (RWR)

Issued by National Weather Service (NWS)

                            
000
ASUS46 KPQR 200710
RWROR 

OREGON REGIONAL WEATHER ROUNDUP
NATIONAL WEATHER SERVICE PORTLAND OR
1200 AM PDT TUE AUG 20 2019

NOTE: "FAIR" INDICATES FEW OR NO CLOUDS BELOW 12,000 FEET WITH
NO SIGNIFICANT WEATHER AND/OR OBSTRUCTIONS TO VISIBILITY.

ORZ001>013-200800-
NORTHWEST OREGON

  
CITY           SKY/WX    TMP DP  RH WIND       PRES   REMARKS
ASTORIA        CLEAR     56  53  90 SE3       29.95F                  
TILLAMOOK      CLEAR     54  52  94 CALM      29.97S                  
NEWPORT        CLEAR     54  52  94 CALM      29.99F                  
FLORENCE       FAIR      54  52  94 CALM      29.97S FOG              
PORTLAND       CLEAR     67  56  67 CALM      29.94R                  
VANCOUVER WA   CLEAR     63  55  75 CALM      29.94R                  
SCAPPOOSE      CLEAR     60  54  80 CALM      29.93R                  
HILLSBORO      CLEAR     61  55  81 NW5       29.94S                  
AURORA         CLEAR     65  55  70 NE5       29.94S                  
MCMINNVILLE    CLEAR     62  55  77 W5        29.93S                  
SALEM          CLEAR     64  54  69 W3        29.93S                  
CORVALLIS      CLEAR     63  55  75 W10       29.94F                  
EUGENE         CLEAR     62  53  72 E5        29.94S                  
CRESWELL       CLEAR     59  55  88 CALM      29.94R                  
$$

ORZ021-028-200800-
SOUTHWEST OREGON

  
CITY           SKY/WX    TMP DP  RH WIND       PRES   REMARKS
NORTH BEND     CLEAR     59  57  93 CALM      30.00S                  
BROOKINGS      LGT RAIN  52  52 100 CALM      29.99F FOG              
ROSEBURG       CLEAR     69  57  65 N3        29.94S                  
SEXTON SUMMIT  CLEAR     65  52  62 SW3       30.06S                  
GRANTS PASS    FAIR      72  54  53 CALM      29.97S                  
MEDFORD        PTCLDY    74  52  46 CALM      29.94R                  
$$

ORZ014>016-041-200800-
COLUMBIA GORGE

  
CITY           SKY/WX    TMP DP  RH WIND       PRES   REMARKS
TROUTDALE      CLEAR     65  56  72 CALM      29.93S                  
HOOD RIVER     CLEAR     63  50  63 CALM      29.92R                  
THE DALLES     CLEAR     73  53  49 NW10      29.87R                  
$$

ORZ029>031-041-044-049-050-061>064-502-503-505>511-200800-
EASTERN OREGON

  
CITY           SKY/WX    TMP DP  RH WIND       PRES   REMARKS
MADRAS         PTCLDY    61  48  63 CALM      30.00S                  
REDMOND        PTCLDY    71  50  47 NW8       30.00R                  
BEND           PTCLDY    68  48  49 W6        30.02S                  
PRINEVILLE     PTCLDY    64  45  48 CALM      30.00R                  
KLAMATH FALLS  CLEAR     59  49  69 CALM      30.05S                  
LAKEVIEW       CLEAR     54  33  45 SE9       30.11S                  
HERMISTON      PTCLDY    64  47  53 SE3       29.87R                  
PENDLETON      CLEAR     67  45  45 SE9       29.90S                  
JOHN DAY       MOCLDY    68  39  33 CALM      30.01S                  
MEACHAM        CLEAR     51  43  74 CALM      30.05R                  
LA GRANDE      PTCLDY    61  46  57 CALM      29.99R                  
BAKER CITY     PTCLDY    60  48  64 CALM      30.01S                  
BURNS          MOCLDY    66  39  37 W7        30.02R                  
ROME             N/A     63  30  28 S7        30.00R                  
ONTARIO        PTCLDY    78  43  28 CALM      29.89R                  
$$